Miscellaneous Local Product
Issued by NWS North Platte, NE

Home | Current Version | Previous Version | Text Only | Print | Product List | Glossary On
Versions: 1 2 3 4 5 6 7 8 9 10 11 12 13 14 15 16 17 18 19 20 21 22 23 24 25 26 27 28 29 30 31 32 33 34 35 36 37 38 39 40 41 42 43 44 45 46 47 48 49 50
000
AXUS43 KLBF 020410
MISLBF


WESTERN AND NORTH CENTRAL NEBRASKA HOURLY WEATHER ROUNDUP
NATIONAL WEATHER SERVICE NORTH PLATTE NE
1100 PM CDT WED OCT 01 2014

***STATIONS NOT REPORTING VARIABLES SUCH AS SKY/WEATHER OR
PRESSURE ARE PROVIDED BY THE NEBRASKA DEPARTMENT OF
ROADS...RAWS...AND APRS NETWORKS...AND ARE NOT UNDER
NATIONAL WEATHER SERVICE QUALITY CONTROL***

...OBSERVATIONS IN AND NEAR THE EASTERN PANHANDLE OF NEBRASKA...

CITY           SKY/WX    TMP DP  RH WIND       PRES   REMARKS
PINE RIDGE     CLOUDY    48  47  96 W5        30.00R
CHADRON        CLOUDY    50  47  89 S3        30.00R
ALLIANCE       CLOUDY    47  45  93 NE6       30.00S
SIDNEY         MOCLDY    45  43  93 N13       30.01S
WHITECLAY        N/A     46  44  93 CALM        N/A
RUSHVILLE        N/A     46  44  95 W5          N/A
CRESCENT LAKE    N/A     47  45  94 NE6G13      N/A
LISCO            N/A     51  46  83 W3          N/A
BIG SPRINGS      N/A     50  47  88 N12         N/A
$$

...OBSERVATIONS IN NORTH CENTRAL NEBRASKA...

CITY           SKY/WX    TMP DP  RH WIND       PRES   REMARKS
VALENTINE      LGT RAIN  53  48  83 N10       29.94R
THEDFORD       RAIN      53  51  94 N21G30    29.95S
AINSWORTH      CLOUDY    52  50  93 N15       29.92S
O`NEILL        CLEAR     57  51  81 N9        29.88R
ORD            PTCLDY    60  50  69 N6        29.82S
BROKEN BOW     MOCLDY    63  50  62 NE7G18    29.85R
SPRINGVIEW       N/A     55  50  84 SW7         N/A
ROSE             N/A     60  53  75 E9          N/A
NEWPORT          N/A     59  50  73 W9          N/A
SARGENT          N/A     60  51  72 CALM        N/A
COMSTOCK         N/A     63  57  82 SE5         N/A
CHAMBERS         N/A     57  48  72 N3          N/A
EWING            N/A     58  52  80 CALM        N/A
$$

...OBSERVATIONS IN SOUTHWEST NEBRASKA AND FAR NORTHEAST COLORADO...

CITY           SKY/WX    TMP DP  RH WIND       PRES   REMARKS
WRAY           LGT RAIN  50  47  91 N22G32    29.96S
HOLYOKE        FAIR      52  46  82 N18G26    29.98F
IMPERIAL       LGT RAIN  50  46  86 N23G39    29.94F
OGALLALA       LGT RAIN  51  48  89 NW24G32   29.97F
NORTH PLATTE   TSTM      53  50  89 NW29G45   29.94R FOG
MCCOOK         CLOUDY    55  50  83 NW29G43   29.84R
LEXINGTON      PTCLDY    62  54  76 E9        29.81F
PAXTON           N/A     55  49  82 NW15        N/A
SUTHERLAND       N/A     49  47  92 NW10        N/A
BRADY            N/A     60  50  70 CALM        N/A
GOTHENBURG       N/A     62  49  62 E5          N/A
CALLAWAY         N/A     56  51  83 NE5         N/A
$$

...SOME WEATHER OBSERVATIONS FROM AROUND THE REGION...

CITY           SKY/WX    TMP DP  RH WIND       PRES   REMARKS
DENVER         CLOUDY    44  41  89 W8        30.07R
LARAMIE        MOCLDY    35  29  78 N6        30.08R WCI  30
CHEYENNE       CLOUDY    40  36  86 N12       30.07R WCI  33
SCOTTSBLUFF    CLOUDY    46  44  93 NW3       30.02R
RAPID CITY     CLOUDY    50  43  77 W3        29.98R
PIERRE         CLOUDY    50  45  83 NW9       29.89S
WINNER         MOCLDY    56  48  74 NW7       29.92R
SIOUX FALLS    PTCLDY    54  51  90 NW5       29.82R
OMAHA          MOCLDY    64  61  90 CALM      29.79R
GRAND ISLAND   MOCLDY    63  57  81 NW8       29.84S
KANSAS CITY    LGT RAIN  65  65 100 SE9       29.78F
WICHITA        PTCLDY    70  49  47 S9        29.71R
HAYS           CLEAR     61  55  82 SE3       29.77R
LIBERAL        PTCLDY    68  43  40 E6        29.78S
GOODLAND       LGT RAIN  51  48  89 N20G26    29.94R
$$



USA.gov is the U.S. government's official web portal to all federal, state and local government web resources and services.